[[{"header":{"parameterUnit":"m.s-1","parameterCategory":1,"la1":30.2991,"la2":30.254,"lo1":-89.0895,"lo2":-89.0444,"dy":0.0017,"dx":0.0017,"nx":28,"ny":28,"refTime":"2024-07-25T03:00:00:Z","depth":0,"parameterNumber":2,"parameterNumberName":"U-component_of_WINDS"},"data":[0,0,0,0,0,0,0,0,0,0,0,0,0,0,0,0,0,0,0,0,0,0,0,0,0,0,0,0,0,0,0,0,0,0,0,0,0,0,0,0,0,0,0,0,0,0,0,0,0,0,0,0,0,0,0,0,0,0,-3.4629,-3.4628,0,-3.455,-3.4549,-3.4548,-3.4452,-3.4451,-3.445,-3.4448,-3.4362,-3.4361,-3.436,0,0,0,0,0,0,0,0,0,0,0,0,0,-3.4697,-3.4697,-3.4629,-3.4628,-3.4627,-3.455,-3.4549,-3.4548,-3.4453,-3.4451,-3.4449,-3.4447,-3.4362,-3.4361,-3.436,0,0,0,0,0,0,0,0,0,0,0,0,0,-3.4648,-3.4696,-3.463,-3.4571,-3.4565,-3.455,-3.4549,-3.4547,-3.4453,-3.4451,-3.4449,-3.4447,-3.4363,-3.4361,-3.436,-3.4395,0,0,-3.4356,-3.4355,0,0,0,0,0,0,0,0,-3.4651,-3.4645,-3.458,-3.4575,-3.4568,-3.4509,-3.4541,-3.4496,-3.4454,-3.4495,-3.4448,-3.4446,-3.4412,-3.4407,-3.4396,-3.4391,-3.4387,-3.4355,-3.4355,-3.4354,-3.4354,0,0,0,0,0,0,0,-3.4654,-3.4648,-3.4598,-3.458,-3.4572,-3.4548,-3.4538,-3.4532,-3.4467,-3.4492,-3.4484,-3.4477,-3.4408,-3.4398,-3.4394,-3.4386,-3.4356,-3.4354,-3.4353,-3.4353,-3.4406,-3.4408,0,0,0,0,0,0,-3.4667,-3.4652,-3.46,-3.4595,-3.4605,-3.4548,-3.4538,-3.453,-3.4467,-3.4455,-3.4479,-3.4472,-3.4401,-3.4395,-3.439,-3.4426,-3.4354,-3.4353,-3.4352,-3.4404,-3.4406,-3.4409,0,0,0,0,0,0,-3.4669,-3.4663,-3.4603,-3.4622,-3.4612,-3.455,-3.4542,-3.453,-3.4519,-3.4457,-3.4445,-3.448,-3.4399,-3.4392,-3.4395,-3.4422,-3.4352,-3.4351,-3.4401,-3.4404,-3.4407,-3.4499,0,0,0,0,0,0,-3.4671,-3.4664,-3.4677,-3.4623,-3.4612,-3.461,-3.4543,-3.453,-3.4517,-3.4508,-3.4455,-3.4444,-3.4397,-3.4398,-3.4394,-3.4419,-3.435,-3.4398,-3.4402,-3.4406,-3.4493,-3.4505,-3.4515,0,0,0,0,0,-3.4674,-3.4705,-3.4678,-3.4673,-3.4627,-3.4612,-3.4605,-3.4552,-3.452,-3.4532,-3.4493,-3.4445,-3.4421,-3.4399,-3.4393,-3.4418,-3.4396,-3.4401,-3.4406,-3.4488,-3.4503,-3.4515,0,0,0,0,0,0,-3.4762,-3.4697,-3.4666,-3.4681,-3.4653,-3.4596,-3.4609,-3.4569,-3.4548,-3.4541,-3.4475,-3.4464,-3.4474,-3.4447,-3.4424,-3.4449,-3.4402,-3.4406,-3.4466,-3.4479,-3.449,-3.4494,-3.4349,0,0,0,0,0,-3.4784,-3.4779,-3.4721,-3.474,-3.4728,-3.4672,-3.4663,-3.4625,-3.4593,-3.458,-3.454,-3.451,-3.4495,-3.4486,-3.4469,-3.4491,-3.4477,-3.4506,-3.4517,-3.4526,-3.4529,-3.4538,-3.4549,-3.4425,-3.4425,-3.4425,0,0,-3.4827,-3.4791,-3.4791,-3.4757,-3.473,-3.4725,-3.4662,-3.4659,-3.4654,-3.4579,-3.4578,-3.455,-3.4511,-3.4523,-3.4527,-3.4501,-3.4561,-3.4533,-3.4541,-3.4538,-3.4544,-3.4556,-3.4566,-3.4429,-3.4428,-3.4428,0,0,-3.4903,-3.4877,-3.4889,-3.4865,-3.4827,-3.479,-3.4794,-3.4743,-3.4721,-3.4721,-3.4665,-3.4659,-3.4635,-3.4609,-3.4593,-3.4665,-3.462,-3.4662,-3.4717,-3.4727,-3.4736,-3.4745,-3.4768,-3.4777,-3.4666,-3.4666,-3.4666,0,-3.4961,-3.4952,-3.4899,-3.49,-3.4887,-3.4822,-3.4833,-3.4813,-3.4771,-3.4762,-3.4735,-3.4705,-3.4675,-3.468,-3.4698,-3.4688,-3.4689,-3.4665,-3.474,-3.4747,-3.4754,-3.4776,-3.4785,-3.4671,-3.4671,-3.467,-3.467,0,-3.5025,-3.502,-3.5034,-3.4997,-3.4986,-3.4992,-3.494,-3.4935,-3.49,-3.4866,-3.4867,-3.4829,-3.4803,-3.4803,-3.4767,-3.4803,-3.4788,-3.4752,-3.4702,-3.4772,-3.4791,-3.4799,-3.4678,-3.4677,-3.4675,-3.4674,0,0,-3.5148,-3.5086,-3.5091,-3.5074,-3.503,-3.5024,-3.5029,-3.5006,-3.5002,-3.4977,-3.4977,-3.4961,-3.4928,-3.491,-3.4872,-3.4881,-3.4938,-3.4843,-3.4841,-3.4859,-3.4974,-3.4999,-3.5009,-3.4911,-3.4912,-3.4913,-3.4976,0,-3.5213,-3.5217,-3.5171,-3.5187,-3.5181,-3.5122,-3.5126,-3.5099,-3.5069,-3.5059,-3.5025,-3.5014,-3.4971,-3.496,-3.4967,-3.493,-3.496,-3.4925,-3.4908,-3.4908,-3.4915,-3.5019,-3.5045,-3.5106,-3.4983,-3.4985,-3.4986,0,-3.5288,-3.5269,-3.5284,-3.5241,-3.5237,-3.5241,-3.5217,-3.5209,-3.5178,-3.5156,-3.5139,-3.5096,-3.5097,-3.5054,-3.5052,-3.503,-3.5022,-3.5003,-3.5004,-3.4996,-3.4948,-3.5011,-3.5124,-3.5132,-3.4997,-3.4996,-3.4995,0,-3.5373,-3.5352,-3.5358,-3.5346,-3.5296,-3.53,-3.528,-3.5247,-3.5237,-3.5216,-3.5208,-3.5189,-3.5176,-3.5161,-3.5115,-3.5088,-3.5119,-3.5072,-3.5098,-3.5099,-3.5103,-3.5102,-3.5212,-3.5105,-3.5104,-3.5104,-3.5104,0,-3.5448,-3.5458,-3.5396,-3.5399,-3.5411,-3.536,-3.5372,-3.5345,-3.5317,-3.5314,-3.5263,-3.5261,-3.5202,-3.5194,-3.5158,-3.5162,-3.5157,-3.5138,-3.5127,-3.514,-3.5142,-3.5129,-3.5122,-3.5107,-3.5106,-3.5106,-3.5105,0,-3.5542,-3.5501,-3.5504,-3.5458,-3.5447,-3.5457,-3.5417,-3.5418,-3.5388,-3.5384,-3.5381,-3.5331,-3.5318,-3.5272,-3.5248,-3.5224,-3.5238,-3.5221,-3.5249,-3.5241,-3.5269,-3.5266,-3.5371,-3.5381,-3.5272,-3.5273,-3.5274,0,-3.559,-3.5597,-3.5554,-3.5549,-3.5531,-3.5524,-3.5514,-3.5466,-3.5457,-3.5425,-3.5429,-3.5414,-3.5398,-3.5381,-3.5342,-3.5323,-3.5302,-3.5341,-3.5299,-3.5312,-3.5299,-3.5298,-3.5297,-3.5348,-3.535,-3.5351,-3.5352,0,-3.5679,-3.5659,-3.5647,-3.5629,-3.562,-3.5603,-3.5583,-3.5582,-3.5528,-3.5521,-3.5509,-3.5497,-3.5475,-3.5459,-3.5435,-3.5412,-3.5373,-3.5367,-3.5371,-3.5382,-3.5396,-3.5386,-3.5269,-3.5363,-3.5362,-3.5361,-3.536,-3.536,-3.5748,-3.5753,-3.5723,-3.5712,-3.5693,-3.5676,-3.5675,-3.5646,-3.5635,-3.5613,-3.5587,-3.5578,-3.5548,-3.5512,-3.5494,-3.5485,-3.5463,-3.5471,-3.5472,-3.5473,-3.5479,-3.5403,-3.5481,-3.5481,-3.5481,-3.548,-3.548,0,-3.5832,-3.5811,-3.5802,-3.5777,-3.5769,-3.5737,-3.5714,-3.5708,-3.5702,-3.5679,-3.5666,-3.5652,-3.5638,-3.56,-3.5582,-3.5582,-3.5564,-3.5579,-3.5576,-3.5571,-3.5501,-3.5497,-3.5594,-3.5594,-3.5594,-3.5594,-3.5594,-3.5594,-3.5874,-3.5879,-3.5856,-3.5852,-3.5831,-3.5823,-3.5812,-3.5797,-3.5778,-3.5766,-3.5755,-3.5731,-3.5702,-3.5682,-3.5667,-3.5656,-3.565,-3.5671,-3.5654,-3.5587,-3.5576,-3.5566,-3.5562,-3.5671,-3.5671,-3.5725,-3.5725,-3.5725]},{"header":{"parameterUnit":"m.s-1","parameterCategory":1,"la1":30.2991,"la2":30.254,"lo1":-89.0895,"lo2":-89.0444,"dy":0.0017,"dx":0.0017,"nx":28,"ny":28,"refTime":"2024-07-25T03:00:00:Z","depth":0,"parameterNumber":3,"parameterNumberName":"V-component_of_WINDS"},"data":[0,0,0,0,0,0,0,0,0,0,0,0,0,0,0,0,0,0,0,0,0,0,0,0,0,0,0,0,0,0,0,0,0,0,0,0,0,0,0,0,0,0,0,0,0,0,0,0,0,0,0,0,0,0,0,0,0,0,-0.6225,-0.6227,0,-0.6356,-0.6357,-0.6359,-0.6426,-0.6426,-0.6426,-0.6426,-0.6558,-0.6562,-0.6565,0,0,0,0,0,0,0,0,0,0,0,0,0,-0.6033,-0.6036,-0.6225,-0.6227,-0.6228,-0.6356,-0.6358,-0.6359,-0.6426,-0.6426,-0.6426,-0.6426,-0.6557,-0.6561,-0.6566,0,0,0,0,0,0,0,0,0,0,0,0,0,-0.6135,-0.6037,-0.6225,-0.6277,-0.6283,-0.6355,-0.6358,-0.636,-0.6426,-0.6426,-0.6426,-0.6426,-0.6556,-0.6561,-0.6566,-0.6596,0,0,-0.6582,-0.6584,0,0,0,0,0,0,0,0,-0.6129,-0.6142,-0.6268,-0.6274,-0.6281,-0.6375,-0.6338,-0.6439,-0.6426,-0.6372,-0.6426,-0.6427,-0.6497,-0.6507,-0.6531,-0.6602,-0.6608,-0.6582,-0.6585,-0.6588,-0.6589,0,0,0,0,0,0,0,-0.6122,-0.6137,-0.6277,-0.627,-0.6277,-0.6294,-0.6308,-0.6358,-0.6432,-0.6377,-0.6382,-0.6396,-0.6501,-0.6526,-0.6535,-0.661,-0.6582,-0.6587,-0.659,-0.6592,-0.6711,-0.6711,0,0,0,0,0,0,-0.6106,-0.613,-0.6273,-0.6281,-0.6204,-0.6297,-0.6314,-0.6344,-0.6432,-0.6445,-0.6396,-0.6399,-0.6517,-0.6529,-0.654,-0.6581,-0.6588,-0.6592,-0.6595,-0.6711,-0.6711,-0.6711,0,0,0,0,0,0,-0.6102,-0.6119,-0.6268,-0.6207,-0.6227,-0.63,-0.6335,-0.6347,-0.6373,-0.6447,-0.646,-0.6409,-0.6518,-0.6533,-0.6582,-0.6586,-0.6595,-0.66,-0.6711,-0.6711,-0.6711,-0.6662,0,0,0,0,0,0,-0.6096,-0.6117,-0.6129,-0.6207,-0.623,-0.6307,-0.6335,-0.6349,-0.6382,-0.6387,-0.6462,-0.6475,-0.6519,-0.6573,-0.6587,-0.6593,-0.6604,-0.6711,-0.6711,-0.6711,-0.6663,-0.666,-0.6658,0,0,0,0,0,-0.6089,-0.6109,-0.6129,-0.6146,-0.6247,-0.6307,-0.6321,-0.6372,-0.6382,-0.6395,-0.6442,-0.6472,-0.6583,-0.6578,-0.6593,-0.6602,-0.6711,-0.6711,-0.6711,-0.6665,-0.6661,-0.6658,0,0,0,0,0,0,-0.6029,-0.612,-0.6143,-0.6189,-0.624,-0.6319,-0.6336,-0.6366,-0.6415,-0.6417,-0.6479,-0.6495,-0.6538,-0.6575,-0.6567,-0.6635,-0.665,-0.6653,-0.661,-0.6607,-0.6604,-0.6594,-0.6608,0,0,0,0,0,-0.6022,-0.6063,-0.614,-0.6174,-0.6198,-0.6262,-0.6291,-0.6326,-0.6381,-0.6402,-0.6454,-0.6505,-0.6552,-0.6581,-0.6628,-0.6669,-0.6686,-0.6682,-0.6679,-0.6677,-0.6679,-0.6703,-0.6702,-0.6712,-0.6712,-0.6712,0,0,-0.6006,-0.6061,-0.6083,-0.6163,-0.6206,-0.6248,-0.628,-0.6323,-0.6354,-0.6409,-0.6458,-0.6497,-0.6559,-0.6604,-0.6626,-0.6636,-0.668,-0.6677,-0.6674,-0.6678,-0.6703,-0.6702,-0.6701,-0.6712,-0.6712,-0.6712,0,0,-0.5998,-0.6044,-0.6077,-0.612,-0.6185,-0.6228,-0.6236,-0.631,-0.6339,-0.6389,-0.6432,-0.6469,-0.6548,-0.6591,-0.6622,-0.6631,-0.6661,-0.6645,-0.6629,-0.6653,-0.6652,-0.6651,-0.6655,-0.6655,-0.6647,-0.6646,-0.6646,0,-0.597,-0.6035,-0.609,-0.613,-0.6164,-0.6216,-0.625,-0.6288,-0.6366,-0.6388,-0.6397,-0.6498,-0.6543,-0.6599,-0.6601,-0.6625,-0.6636,-0.6636,-0.6648,-0.6648,-0.6648,-0.6652,-0.6653,-0.6644,-0.6644,-0.6645,-0.6645,0,-0.5997,-0.6041,-0.606,-0.6133,-0.617,-0.6206,-0.6266,-0.6296,-0.6328,-0.637,-0.6421,-0.6477,-0.6536,-0.6552,-0.6584,-0.6613,-0.6616,-0.6636,-0.6652,-0.6644,-0.6649,-0.665,-0.6641,-0.6642,-0.6642,-0.6643,0,0,-0.5955,-0.6059,-0.6065,-0.6099,-0.6176,-0.6211,-0.625,-0.6309,-0.6333,-0.6384,-0.6418,-0.6484,-0.6503,-0.6539,-0.6576,-0.6596,-0.66,-0.6614,-0.6616,-0.6609,-0.6635,-0.662,-0.662,-0.662,-0.662,-0.6621,-0.663,0,-0.5958,-0.6031,-0.6082,-0.6134,-0.6176,-0.6226,-0.626,-0.631,-0.635,-0.6391,-0.6435,-0.6481,-0.6503,-0.6525,-0.6547,-0.6594,-0.6606,-0.6594,-0.6652,-0.6653,-0.6635,-0.6623,-0.6607,-0.6613,-0.6632,-0.6632,-0.6632,0,-0.5971,-0.6022,-0.6079,-0.6151,-0.6171,-0.62,-0.6258,-0.6297,-0.6355,-0.6383,-0.6423,-0.6461,-0.6504,-0.6516,-0.6576,-0.6568,-0.6594,-0.6621,-0.6622,-0.6629,-0.6642,-0.6629,-0.6616,-0.6616,-0.6636,-0.6635,-0.6635,0,-0.5935,-0.6017,-0.6062,-0.609,-0.6175,-0.6195,-0.6231,-0.629,-0.6322,-0.6373,-0.6394,-0.6449,-0.6479,-0.652,-0.6571,-0.6576,-0.6626,-0.6643,-0.665,-0.6649,-0.6658,-0.6657,-0.6648,-0.6675,-0.6675,-0.6675,-0.6675,0,-0.5933,-0.5966,-0.6047,-0.6074,-0.6113,-0.6171,-0.6207,-0.6248,-0.6299,-0.6335,-0.6382,-0.6415,-0.6481,-0.6522,-0.6562,-0.6606,-0.6619,-0.6642,-0.6653,-0.6638,-0.6635,-0.6656,-0.6657,-0.6675,-0.6675,-0.6675,-0.6675,0,-0.5898,-0.5954,-0.6006,-0.6083,-0.6103,-0.6128,-0.6194,-0.6222,-0.6265,-0.631,-0.6324,-0.6391,-0.6442,-0.6498,-0.6566,-0.6594,-0.6635,-0.665,-0.6615,-0.6621,-0.6625,-0.6624,-0.663,-0.6633,-0.6657,-0.6657,-0.6657,0,-0.5893,-0.592,-0.6,-0.6027,-0.6063,-0.6107,-0.614,-0.6199,-0.6231,-0.63,-0.632,-0.6374,-0.6421,-0.6499,-0.6554,-0.6606,-0.6623,-0.6621,-0.6631,-0.6616,-0.6623,-0.6621,-0.6624,-0.6618,-0.6618,-0.6617,-0.6617,0,-0.5878,-0.5904,-0.5951,-0.6007,-0.6046,-0.6092,-0.6141,-0.6161,-0.6229,-0.6264,-0.6316,-0.6352,-0.6423,-0.6476,-0.6536,-0.6573,-0.6606,-0.6613,-0.6618,-0.6603,-0.6582,-0.6594,-0.6607,-0.6613,-0.6613,-0.6614,-0.6614,-0.6614,-0.5858,-0.5884,-0.5944,-0.5995,-0.6038,-0.6082,-0.6113,-0.616,-0.6205,-0.6268,-0.63,-0.6352,-0.641,-0.6494,-0.653,-0.6572,-0.6582,-0.6588,-0.659,-0.6591,-0.6587,-0.6576,-0.6583,-0.6583,-0.6583,-0.6583,-0.6583,0,-0.5845,-0.5887,-0.5932,-0.5999,-0.6039,-0.6067,-0.6123,-0.6154,-0.62,-0.6251,-0.6296,-0.6357,-0.6409,-0.6468,-0.6523,-0.6545,-0.6562,-0.6558,-0.6557,-0.6565,-0.6574,-0.6565,-0.6544,-0.6544,-0.6544,-0.6544,-0.6544,-0.6544,-0.5843,-0.5889,-0.5922,-0.599,-0.6031,-0.6083,-0.6113,-0.6154,-0.6196,-0.6261,-0.6305,-0.6344,-0.6398,-0.6458,-0.6507,-0.6523,-0.6541,-0.6533,-0.6553,-0.6561,-0.6564,-0.6567,-0.6559,-0.6537,-0.6537,-0.6541,-0.6541,-0.6541]}]]